ONEWEB-0034, 45454

Orbit data source: Space-Track

ONEWEB-0034, 45454 is a payload satellite owned by One Web (UK) in LEO that was launched on Sat, 21 Mar 2020 UTC via a SOYUZ-2-1B launch vehicle from the Tyuratam Missile And Space Complex (TTMTR). Payload-class satellites include a variety of spacecraft equipped with specific instruments for various scientific and technological missions. These include communications satellites like Starlink; space stations such as the ISS; scientific satellites like the Hubble; Earth observation satellites from companies like Planet Labs, Umbra, and HawkEye 360; GPS; miniature CubeSats for education and research; and military/defense satellites.

Loading next visibility...
Identifier
45454, 2020-020AG
Orbit
LEO
Last TLE update
16 hours ago
Origin
Manufacturer
One Web
Mission
Operational Commercial Communications
Bus & Motor
ARROW, Unknown motor
Mass
148 kg wet, ~140 kg dry
Launch date (UTC)
2020-03-21 (5 years ago)
Launch vehicle
SOYUZ-2-1B
Launch site
Tyuratam Missile And Space Complex (TTMTR)
Object type
Payload
Rocket body
Debris
Shape & HBR
Trap Box + 2 Pan, 5 m
Radar Cross Section
2.957 m², Large (>1 m²)

Expand to show TLE details & history

TLE from 16 hours ago
0 ONEWEB-0034
1 45454U 20020AG  25181.77885615 -.00000408  00000-0 -11869-2 0  9991
2 45454  87.8843  91.0946 0001960  78.0179 282.1168 13.11416100256536
Epoch: 2025-06-30T18:41Z
TLE epoch observation values (Epoch: 2025-06-30T18:41:33.171Z)
Latitude
-0.00007°
Longitude
-108.37739°
Altitude
1,220.263 km
Speed
7.244 km/s
True Right ascension
06h 04m 22s
True Declination
0° 00' 00"
Sunlit
Object was in daylight at epoch
Visualization orbit readout
Latitude
-6.71678°
Longitude
71.74113°
Altitude
1,222.215 km
Speed
7.243 km/s
Apparent Right ascension
15h 24m 46s
Apparent Declination
-37° 33' 54"
Sunlit
Object is in full shadow
Visualization observer readout
Local Sidereal Time
21:55:48
Azimuth
243.072° WSW
Elevation
-28.246°
Doppler factor
1
Orbital elements
Apogee altitude
1,216.292 km
Perigee altitude
1,213.316 km
Semi-major axis
7,592.941 km
Eccentricity
0.0002
Inclination
87.8843°
RAAN
91.0946°
Arg. of periapsis
78.0179°
True anomaly
Unknown
Mean anomaly
282.1168°
Eccentric anomaly
Unknown
Mean motion
3.28041 °/min
Orbital period
109.74 mins
BSTAR
-0.0011869
Loading maneuver chart data...
Loading SW <> Apogee altitude chart data...
Loading historical data...
Loading historical data...
Loading historical data...
Loading historical data...
Loading historical data...
Loading historical data...
Loading historical data...

ONEWEB-0034 Visibility forecast

Observer location: undefined°, undefined°

Span
Click to sort rows by Start time (UTC) header in descending order
Start Az.
Max El. time (UTC)
Max El. Az.
Max El.
End time (UTC)
End Az.
9 mins2025-07-01 16:48:23.025Z112.898° SE2025-07-01 16:53:23.025Z69.134° E17.523°2025-07-01 16:57:23.025Z34.841° NE
12 mins2025-07-01 18:36:23.025Z186.815° SSW2025-07-01 18:42:23.025Z302.445° NW43.967°2025-07-01 18:48:23.025Z356.784° N
5 mins2025-07-02 04:18:23.025Z50.359° ENE2025-07-02 04:20:23.025Z67.597° E13.737°2025-07-02 04:23:23.025Z93.655° ESE
13 mins2025-07-02 06:05:23.025Z0.373° NNE2025-07-02 06:11:23.025Z24.753° NE44.738°2025-07-02 06:18:23.025Z179.781° S
6 mins2025-07-02 07:58:23.025Z308.209° NW2025-07-02 08:00:23.025Z290.092° WNW15.271°2025-07-02 08:04:23.025Z255.893° W
|